Home   Weather   Smara   Past weeks

Past Weather in Smara, Western Sahara — Yesterday and Last 2 Weeks

Now
77 °F

Passing clouds.


Feels Like: 79 °F
Forecast: N/A
Wind: 17 mph from North

Location: Laayoune/Hassan Isl

Current Time: May 26, 2017 at 3:11:51 pm

Latest Report: May 26, 2017 at 2:00 pm


Visibility: N/A

Pressure: 29.98 "Hg

Humidity: 51%

Dew Point: 57 °F

Location of SmaraLocation

Past Weather in Smara — Graph

°F

Smara Temperature Yesterday

Maximum temperature yesterday: 79 °F (at 3:00 pm)
Minimum temperature yesterday: 68 °F (at 12:00 am)
Average temperature yesterday: 72 °F

High & Low Weather Summary for the Past Weeks

 TemperatureHumidityPressure
High84 °F (May 14, 3:00 pm)94% (May 15, 6:00 am)30.15 "Hg (May 15, 6:00 am)
Low61 °F (May 14, 7:00 am)33% (May 14, 3:00 pm)29.83 "Hg (May 19, 5:00 pm)
Average72 °F65%30.00 "Hg
* Reported May 11 3:00 pm — May 26 2:00 pm, Smara. Weather by CustomWeather, © 2017

Note: Actual official high and low records may vary slightly from our data, if they occured in-between our weather recording intervals... More about our weather records

Advertising

Smara Weather History for the Previous 24 Hours

Scroll right to see more
 ConditionsComfort  
Time TempWeatherWind HumidityBarometerVisibility
2:00 pm
Fri, May 26
77 °FPassing clouds.17 mph51%29.98 "HgN/A
1:00 pm79 °FPassing clouds.18 mph45%30.01 "HgN/A
12:00 pm77 °FScattered clouds.17 mph44%30.04 "HgN/A
11:00 am77 °FScattered clouds.15 mph44%30.04 "HgN/A
10:00 am75 °FScattered clouds.14 mph50%30.04 "HgN/A
9:00 am72 °FPartly sunny.15 mph53%30.04 "HgN/A
8:00 am70 °FPartly sunny.14 mph64%30.04 "Hg5 mi
7:00 am68 °FPartly sunny.12 mph64%30.01 "Hg5 mi
6:00 am66 °FPassing clouds.9 mph78%30.01 "Hg5 mi
4:00 am68 °FPassing clouds.10 mph64%29.98 "Hg5 mi
3:00 am68 °FPassing clouds.16 mph69%29.98 "Hg5 mi
2:00 am68 °FPassing clouds.13 mph64%30.01 "HgN/A
1:00 am68 °FPassing clouds.10 mph64%30.04 "HgN/A
12:00 am68 °FPassing clouds.13 mph73%30.04 "HgN/A
11:00 pm
Thu, May 25
68 °FPassing clouds.12 mph69%30.04 "HgN/A
10:00 pm68 °FClear.14 mph73%30.04 "Hg10 mi
9:00 pm68 °FClear.16 mph69%30.01 "Hg10 mi
8:00 pm70 °FPassing clouds.18 mph64%30.01 "HgN/A
7:00 pm73 °FSunny.18 mph53%29.98 "Hg10 mi
6:00 pm75 °FSunny.20 mph47%29.98 "Hg10 mi
5:00 pm77 °FPassing clouds.22 mph44%29.98 "HgN/A
4:00 pm77 °FPassing clouds.20 mph44%29.98 "HgN/A
3:00 pm79 °FPassing clouds.18 mph42%30.01 "HgN/A
Weather by CustomWeather, © 2017

See weather overviewHow to use our weather pages